Regional Weather Roundup
Issued by NWS

Home | Current Version | Previous Version | Graphics & Text | Print | Product List | Glossary On
Versions: 1 2 3 4 5 6 7 8 9 10 11 12 13 14 15 16 17 18 19 20 21 22 23 24 25 26 27 28 29 30 31 32 33 34 35 36 37 38 39 40 41 42 43 44 45 46 47 48 49 50
000
ASUS43 KLOT 282000
RWRIL

ILLINOIS REGIONAL WEATHER ROUNDUP
NATIONAL WEATHER SERVICE CHICAGO/ROMEOVILLE IL
200 PM CST SAT FEB 28 2015

NOTE: "FAIR" INDICATES FEW OR NO CLOUDS BELOW 12,000 FEET WITH NO
SIGNIFICANT WEATHER AND/OR OBSTRUCTIONS TO VISIBILITY.

* THESE STATIONS ARE NOT UNDER NWS QUALITY CONTROL. THEY ALSO MAY NOT
  REPORT WEATHER SUCH AS PRECIPITATION OR FOG.

ILZ001-002-007-009-015-016-024-282100-
NORTHWEST ILLINOIS

CITY           SKY/WX    TMP DP  RH WIND       PRES   REMARKS
MOLINE         SUNNY     18   2  49 SE6       30.56F WCI  10
STERLING*      SUNNY     16   5  62 E9        30.58F WCI   4
$$

ILZ003-004-008-010-011-017-018-282100-
NORTH CENTRAL ILLINOIS

CITY           SKY/WX    TMP DP  RH WIND       PRES   REMARKS
ROCKFORD       MOSUNNY   15   2  56 SE10      30.60F WCI   2
FREEPORT*      SUNNY     14   2  57 S7        30.59F WCI   4
$$

ILZ005-006-012>014-019>023-282100-
NORTHEAST ILLINOIS

CITY           SKY/WX    TMP DP  RH WIND       PRES   REMARKS
CHICAGO-OHARE  MOSUNNY   20  -2  38 S7        30.59F WCI  11
CHICAGO-MIDWAY MOSUNNY   22   1  40 S5        30.61F WCI  16
AURORA         SUNNY     19   3  49 SE9       30.59F WCI   8
LANSING*       SUNNY     21   4  48 SE5       30.62F WCI  15
WAUKEGAN       SUNNY     18   5  57 SE9       30.60F WCI   7
DUPAGE AIRPORT SUNNY     18   0  45 SE9       30.58F WCI   7
WHEELING       SUNNY     19  -1  41 S9        30.62F WCI   8
NORTHERLY ISL    N/A     21   4  47 SE3         N/A
$$

LMZ740>746-282100-
SOUTHERN LAKE MICHIGAN

STATION/POSITION SKY/WX   TEMP    WIND        PRES    VSBY  WAVE
                          AIR SEA DIR/SP/G                  HT/PER
                          (F)     (DEG/KT/KT) (MB)    (MI)  (FT/S)
WAUKEGAN HARBOR            20     140/  8/ 11   N/A
HARRISON CRIB              17     130/  9/ 13   N/A
BURNHAM HARBOR             20     170/  8/  9   N/A
CALUMET HARBOR             20     140/  5/  8 1035.9F
MICHIGAN CITY              18     160/  7/  9   N/A
$$

ILZ025>027-034>036-040-047-049-050-058-095>099-282100-
WEST-CENTRAL ILLINOIS

CITY           SKY/WX    TMP DP  RH WIND       PRES   REMARKS
QUINCY         LGT SNOW  21  10  62 SE8       30.51F WCI  11
$$

ILZ028>032-037-038-041>044-048-051>054-059>061-282100-
CENTRAL ILLINOIS

CITY           SKY/WX    TMP DP  RH WIND       PRES   REMARKS
DECATUR        MOSUNNY   25  10  53 SE10      30.54F WCI  15
PEORIA         PTSUNNY   25   9  50 S8        30.54F WCI  16
SPRINGFIELD    CLOUDY    25  10  53 SE10      30.53F WCI  15
TAYLORVILLE    NOT AVBL
$$

ILZ033-039-045-046-055>057-062-063-282100-
EAST-CENTRAL ILLINOIS

CITY           SKY/WX    TMP DP  RH WIND       PRES   REMARKS
CHAMPAIGN      MOSUNNY   22  11  62 E9        30.55F WCI  12
MATTOON        CLOUDY    25   8  48 E12       30.53F WCI  14
$$

ILZ079-100>102-282100-
SOUTHWEST ILLINOIS

CITY           SKY/WX    TMP DP  RH WIND       PRES   REMARKS
BELLEVILLE     CLOUDY    28  15  58 SE7       30.51F WCI  21
CAHOKIA*       CLOUDY    28  17  63 SE9       30.52F WCI  19
$$

ILZ064>066-069>071-074>076-080>082-084>086-088>090-092>094-282100-
SOUTH-CENTRAL ILLINOIS

CITY           SKY/WX    TMP DP  RH WIND       PRES   REMARKS
CARBONDALE     CLOUDY    32  14  47 E7        30.51F WCI  26
MT. VERNON     CLOUDY    30  14  51 SE7       30.53F WCI  23
$$

ILZ067-068-072-073-078-083-087-091-282100-
SOUTHEAST ILLINOIS

CITY           SKY/WX    TMP DP  RH WIND       PRES   REMARKS
LAWRENCEVILLE  CLOUDY    29  13  51 E10       30.56F WCI  20
$$

ABBREVIATIONS USED IN REMARKS
   TC - TEMPERATURE IN CELSIUS
  WCI - WIND CHILL INDEX
   HX - HEAT INDEX
  VSB - VISIBILITY
$$



USA.gov is the U.S. government's official web portal to all federal, state and local government web resources and services.